EN

Hourly Weather Gogolewko

Today, 18 May, Tuesday

Time Temperature Precipitation Wind Pressure Humidity
00:00 +10°C° 0 mm 2 mps 748 mmHg 92%
01:00 +10°C° 0 mm 2 mps 748 mmHg 93%
02:00 +10°C° 0 mm 3 mps 748 mmHg 94%
03:00 +9°C° 0 mm 3 mps 748 mmHg 94%
04:00 +9°C° 0 mm 3 mps 748 mmHg 95%
05:00 +10°C° 0 mm 4 mps 748 mmHg 93%
06:00 +10°C° 0 mm 4 mps 749 mmHg 92%
07:00 +10°C° 0 mm 5 mps 749 mmHg 90%
08:00 +12°C° 0 mm 5 mps 749 mmHg 85%
09:00 +13°C° 0 mm 5 mps 749 mmHg 81%
10:00 +14°C° 0 mm 5 mps 750 mmHg 76%
11:00 +14°C° 0.6 mm 6 mps 750 mmHg 76%
12:00 +14°C° 0.6 mm 6 mps 750 mmHg 77%
13:00 +15°C° 0.6 mm 6 mps 750 mmHg 78%
14:00 +15°C° 0.5 mm 6 mps 750 mmHg 78%
15:00 +14°C° 0.5 mm 6 mps 750 mmHg 79%
16:00 +14°C° 0.5 mm 6 mps 750 mmHg 80%
17:00 +13°C° 0.4 mm 5 mps 751 mmHg 82%
18:00 +13°C° 0.4 mm 5 mps 751 mmHg 85%
19:00 +12°C° 0.4 mm 4 mps 751 mmHg 87%
20:00 +11°C° 0 mm 4 mps 751 mmHg 90%
21:00 +10°C° 0 mm 4 mps 751 mmHg 92%
22:00 +9°C° 0 mm 3 mps 752 mmHg 94%
23:00 +9°C° 0 mm 3 mps 752 mmHg 95%

Tomorrow, 19 May, Wednesday

Time Temperature Precipitation Wind Pressure Humidity
00:00 +8°C° 0 mm 3 mps 752 mmHg 95%
01:00 +8°C° 0 mm 3 mps 752 mmHg 95%
02:00 +7°C° 0 mm 3 mps 752 mmHg 96%
03:00 +7°C° 0 mm 3 mps 753 mmHg 96%
04:00 +5°C° 0 mm 3 mps 753 mmHg 96%
05:00 +8°C° 0 mm 3 mps 753 mmHg 93%
06:00 +9°C° 0 mm 3 mps 753 mmHg 90%
07:00 +11°C° 0 mm 4 mps 753 mmHg 86%
08:00 +12°C° 0.3 mm 4 mps 753 mmHg 81%
09:00 +13°C° 0.3 mm 4 mps 753 mmHg 76%
10:00 +14°C° 0.3 mm 4 mps 753 mmHg 72%
11:00 +14°C° 0.6 mm 4 mps 753 mmHg 73%
12:00 +14°C° 0.6 mm 4 mps 753 mmHg 74%
13:00 +14°C° 0.6 mm 4 mps 753 mmHg 75%
14:00 +14°C° 0.5 mm 4 mps 753 mmHg 73%
15:00 +14°C° 0.5 mm 4 mps 753 mmHg 71%
16:00 +14°C° 0.5 mm 5 mps 753 mmHg 70%
17:00 +13°C° 0.4 mm 4 mps 753 mmHg 75%
18:00 +12°C° 0.4 mm 3 mps 753 mmHg 80%
19:00 +11°C° 0.4 mm 3 mps 754 mmHg 85%
20:00 +10°C° 0 mm 3 mps 754 mmHg 86%
21:00 +9°C° 0 mm 2 mps 754 mmHg 88%
22:00 +8°C° 0 mm 2 mps 754 mmHg 89%
23:00 +8°C° 0 mm 2 mps 755 mmHg 89%

Day after tomorrow, 20 May, Thursday

Time Temperature Precipitation Wind Pressure Humidity
00:00 +7°C° 0 mm 2 mps 755 mmHg 89%
01:00 +7°C° 0 mm 2 mps 755 mmHg 89%
02:00 +7°C° 0 mm 2 mps 755 mmHg 90%
03:00 +6°C° 0 mm 2 mps 755 mmHg 90%
04:00 +6°C° 0 mm 2 mps 755 mmHg 91%
05:00 +7°C° 0 mm 2 mps 756 mmHg 88%
06:00 +9°C° 0 mm 2 mps 756 mmHg 85%
07:00 +10°C° 0 mm 2 mps 756 mmHg 83%
08:00 +12°C° 0.1 mm 3 mps 756 mmHg 77%
09:00 +13°C° 0.1 mm 3 mps 756 mmHg 72%
10:00 +14°C° 0.1 mm 3 mps 756 mmHg 66%
11:00 +14°C° 0.4 mm 3 mps 756 mmHg 69%
12:00 +14°C° 0.4 mm 4 mps 756 mmHg 71%
13:00 +14°C° 0.4 mm 4 mps 756 mmHg 74%
14:00 +14°C° 0.4 mm 4 mps 757 mmHg 74%
15:00 +14°C° 0.4 mm 4 mps 757 mmHg 74%
16:00 +14°C° 0.4 mm 5 mps 757 mmHg 74%
17:00 +13°C° 0.2 mm 4 mps 757 mmHg 77%
18:00 +12°C° 0.2 mm 3 mps 757 mmHg 79%
19:00 +11°C° 0.2 mm 3 mps 757 mmHg 82%
20:00 +10°C° 0 mm 2 mps 757 mmHg 84%
21:00 +9°C° 0 mm 2 mps 758 mmHg 85%
22:00 +8°C° 0 mm 2 mps 758 mmHg 87%
23:00 +8°C° 0 mm 2 mps 758 mmHg 88%

21 May, Friday

Time Temperature Precipitation Wind Pressure Humidity
00:00 +7°C° 0 mm 2 mps 758 mmHg 88%
01:00 +7°C° 0 mm 2 mps 758 mmHg 89%
02:00 +6°C° 0 mm 2 mps 758 mmHg 90%
03:00 +6°C° 0 mm 2 mps 758 mmHg 91%
04:00 +5°C° 0 mm 3 mps 757 mmHg 92%
05:00 +8°C° 0 mm 3 mps 757 mmHg 88%
06:00 +9°C° 0 mm 3 mps 757 mmHg 84%
07:00 +11°C° 0 mm 3 mps 757 mmHg 80%
08:00 +12°C° 0 mm 4 mps 757 mmHg 74%
09:00 +14°C° 0 mm 5 mps 756 mmHg 67%
10:00 +15°C° 0 mm 5 mps 756 mmHg 61%
11:00 +16°C° 0 mm 5 mps 755 mmHg 58%
12:00 +16°C° 0 mm 6 mps 755 mmHg 55%
13:00 +17°C° 0 mm 6 mps 754 mmHg 52%
14:00 +17°C° 0 mm 6 mps 754 mmHg 55%
15:00 +17°C° 0 mm 5 mps 753 mmHg 58%
16:00 +17°C° 0 mm 5 mps 753 mmHg 61%
17:00 +16°C° 0 mm 5 mps 752 mmHg 65%
18:00 +15°C° 0 mm 5 mps 751 mmHg 69%
19:00 +14°C° 0 mm 4 mps 751 mmHg 73%
20:00 +14°C° 0 mm 4 mps 751 mmHg 75%
21:00 +13°C° 0 mm 3 mps 751 mmHg 77%
22:00 +12°C° 0 mm 3 mps 751 mmHg 80%
23:00 +12°C° 0 mm 3 mps 750 mmHg 78%

22 May, Saturday

Time Temperature Precipitation Wind Pressure Humidity
00:00 +12°C° 0 mm 3 mps 750 mmHg 77%
01:00 +12°C° 0 mm 3 mps 749 mmHg 76%
02:00 +12°C° 0 mm 4 mps 749 mmHg 75%
03:00 +12°C° 0 mm 4 mps 748 mmHg 75%
04:00 +12°C° 0 mm 4 mps 747 mmHg 75%
05:00 +12°C° 0 mm 4 mps 748 mmHg 76%
06:00 +13°C° 0 mm 4 mps 748 mmHg 77%
07:00 +14°C° 0 mm 4 mps 748 mmHg 78%
08:00 +14°C° 0 mm 4 mps 748 mmHg 76%
09:00 +15°C° 0 mm 4 mps 748 mmHg 74%
10:00 +17°C° 0 mm 4 mps 748 mmHg 72%
11:00 +15°C° 0.3 mm 4 mps 748 mmHg 76%
12:00 +15°C° 0.3 mm 4 mps 748 mmHg 80%
13:00 +14°C° 0.3 mm 4 mps 748 mmHg 84%
14:00 +13°C° 0.4 mm 4 mps 748 mmHg 86%
15:00 +13°C° 0.4 mm 4 mps 748 mmHg 89%
16:00 +12°C° 0.4 mm 4 mps 748 mmHg 92%
17:00 +12°C° 0 mm 4 mps 748 mmHg 90%
18:00 +12°C° 0 mm 4 mps 748 mmHg 89%
19:00 +12°C° 0 mm 4 mps 748 mmHg 87%
20:00 +11°C° 0 mm 4 mps 749 mmHg 87%
21:00 +10°C° 0 mm 4 mps 749 mmHg 88%
22:00 +8°C° 0 mm 4 mps 750 mmHg 89%
23:00 +8°C° 0 mm 4 mps 750 mmHg 89%

23 May, Sunday

Time Temperature Precipitation Wind Pressure Humidity
00:00 +7°C° 0 mm 4 mps 750 mmHg 89%
01:00 +7°C° 0 mm 4 mps 750 mmHg 89%
02:00 +7°C° 0 mm 4 mps 750 mmHg 90%
03:00 +6°C° 0 mm 4 mps 750 mmHg 91%
04:00 +6°C° 0 mm 4 mps 751 mmHg 92%
05:00 +7°C° 0 mm 5 mps 751 mmHg 88%
06:00 +9°C° 0 mm 5 mps 751 mmHg 84%
07:00 +10°C° 0 mm 5 mps 751 mmHg 80%
08:00 +11°C° 0.1 mm 6 mps 752 mmHg 73%
09:00 +12°C° 0.1 mm 7 mps 752 mmHg 66%
10:00 +15°C° 0.1 mm 8 mps 752 mmHg 59%
11:00 +15°C° 0 mm 8 mps 752 mmHg 55%
12:00 +15°C° 0 mm 8 mps 752 mmHg 51%
13:00 +16°C° 0 mm 8 mps 752 mmHg 47%
14:00 +15°C° 0 mm 7 mps 753 mmHg 50%
15:00 +15°C° 0 mm 6 mps 753 mmHg 54%
16:00 +15°C° 0 mm 6 mps 753 mmHg 58%
17:00 +14°C° 0 mm 5 mps 753 mmHg 63%
18:00 +13°C° 0 mm 4 mps 754 mmHg 69%
19:00 +11°C° 0 mm 3 mps 754 mmHg 74%
20:00 +10°C° 0 mm 3 mps 754 mmHg 75%
21:00 +9°C° 0 mm 3 mps 755 mmHg 77%
22:00 +8°C° 0 mm 3 mps 755 mmHg 78%
23:00 +8°C° 0 mm 3 mps 755 mmHg 77%
Show more